Location: Unspecified
(0.0000°N, 0.0000°E)
Time: 03:35:35
(UTC+00:00)

CZ-6A DEB - Pass Details

Date: 16 October 2025
Orbit: 818 x 870 km, 98.8° (Epoch: 17 November)

Event Time Altitude Azimuth Distance (km) Brightness Sun altitude
Rises 18:31:21 0° 190° (S) 3,372 ? -11.3°
Reaches altitude 10° 18:34:04 10° 203° (SSW) 2,444 ? -12.0°
Maximum altitude 18:38:27 26° 257° (WSW) 1,612 ? -13.1°
Drops below altitude 10° 18:42:54 10° 312° (NW) 2,464 ? -14.2°
Sets 18:45:39 0° 325° (NW) 3,406 ? -14.9°
